sat.trackr.live / text

‹ back to catalog

STARLINK-4121

NORAD 53002 · 2022-076S

PAYLOAD ACTIVE UNKNOWN

§ Identity

Operator
Country
US
Launch date
2022-07-07
Launch site
AFETR
Launch vehicle
Mass (kg)
RCS (m²)

Purposes: comms

External: N2YO · Heavens-Above · Gunter

§ Orbital elements

Epoch: 2026-09-20T02:04:25.476672Z

Period
93.79 min
Inclination
53.1597°
Eccentricity
0.0001233
Mean motion
15.35408251 rev/d
Perigee alt
458.9 km
Apogee alt
460.6 km
Semi-major
6,837.8 km
B*
4.6818e-5
RAAN
285.9106°
Arg perigee
73.1870°
Mean anomaly
286.9268°
Rev number
23,240

§ Raw data

STARLINK-41211 53002U 22076S   26263.08640598  .00001253  00000+0  46818-4 0  99972 53002  53.1597 285.9106 0001233  73.1870 286.9268 15.35408251232404

JSON: /api/v1/satellites/53002 · /tle

For live sub-satellite position, see the globe view (requires WebGL).

§ Visibility from observer

Set your observer location to see the next 7 days of passes ≥ 10°. The values pass through the URL so the page stays shareable.

No JS? Fill the form by hand. The geolocation button needs JavaScript.